NUSAT-3 (MILANESAT) (42760 NORAD) Tracking and Keplerian Element Data

This shows tracking and keplerian element data for the satellite.

Feedback or suggestion? Click here.




ElementValue
Catalog42760
NameNUSAT-3 (MILANESAT)
Epoch Orbit10246
Epoch Day114.24442881
Epoch Year2019
RAAN175.5747
Inclination43.0168
Eccentricity0.0010539
Argument of Perigee279.6996
Mean Anonmoly146.187
Mean Motion15.09962115
Decay Rate2.15E-06
L11 42760U 17034C 19114.24442881 .00000215 00000-0 26430-4 0 9990
L22 42760 43.0168 175.5747 0010539 279.6996 146.1870 15.09962115102464

Live tracking and technical data element details for NUSAT-3 (MILANESAT) (NORAD 42760). NUSAT-3 (MILANESAT) can be tracked NOW for your location showing map with azimuth and elevation plus other details from your city location.

Track the satellite on the map from your city or location and see movement details for azimuth, elevation, latitude, longitude, range, height, and movement on the map or in text.







IsCatalogInMostPopularTable: catalog: 42760, numindb: 190
Update: records affected: 1



GetName: 42760 NUSAT-3 (MILANESAT)

Hit Count: updated at: Wed, 24 Apr 2019 18:00:07 GMT